Regional Weather Roundup
Issued by NWS

Home | Current Version | Previous Version | Graphics & Text | Print | Product List | Glossary On
Versions: 1 2 3 4 5 6 7 8 9 10 11 12 13 14 15 16 17 18 19 20 21 22 23 24 25 26 27 28
000
ASUS45 KSLC 252210
RWRUT

UTAH REGIONAL WEATHER ROUNDUP
NATIONAL WEATHER SERVICE SALT LAKE CITY UT
400 PM MDT SAT MAR 25 2017

UTZ001>011-023>025-252300-

NORTHERN UTAH

CITY           SKY/WX    TMP DP  RH WIND       PRES   REMARKS
BRIGHAM CITY     N/A     44  36  72 SE3       29.99S
HILL AFB       LGT RAIN  39  37  93 S7        29.98S WCI  34
LOGAN          CLOUDY    44  37  76 CALM      29.98F
OGDEN          LGT RAIN  41  38  89 CALM      29.98S FOG
SALT LAKE CITY LGT RAIN  42  38  85 CALM      29.99F
WENDOVER       CLOUDY    50  36  58 SE8       30.00F
HEBER CITY     MIX PCPN  41  36  81 SW9       29.94R

$$

UTZ011>015-024>027-252300-

CENTRAL/NORTHEAST UTAH

CITY           SKY/WX    TMP DP  RH WIND       PRES   REMARKS
PROVO AIRPORT  LGT RAIN  43  39  87 NW10      30.00R
MOAB/CANYONLAN LGT RAIN  59  30  33 SE10      29.85R
DELTA          CLOUDY    41  37  87 N5        29.98F
PRICE          CLOUDY    48  33  56 SE12G21   29.90F
RICHFIELD      PTSUNNY   48  37  66 S13       29.96F
ROOSEVELT      CLOUDY    57  32  38 CALM      29.85F
VERNAL         CLOUDY    58  29  33 S3        29.83F

$$

UTZ013>016-019>022-027-252300-

SOUTHERN UTAH

CITY           SKY/WX    TMP DP  RH WIND       PRES   REMARKS
BRYCE CANYON   CLOUDY    41  30  65 W12       29.97F
CEDAR CITY     CLOUDY    43  35  73 W7        29.94F
MILFORD        LGT RAIN  42  39  89 N15       29.97F
ST GEORGE      CLOUDY    58  38  47 NW8       29.92S
HANKSVILLE     PTSUNNY   64  30  27 SW20G29   29.86F
KANAB          CLOUDY    57  36  44 SW14      29.95F
BLANDING       CLOUDY    56  22  26 W3        29.99F

$$

REGIONAL REPORTS     COLORADO/ARIZONA

CITY           SKY/WX    TMP DP  RH WIND       PRES   REMARKS
CRAIG, CO      CLOUDY    60  19  20 SW13      29.86F
GRAND JUNCTION CLOUDY    62  28  27 NW13      29.84F
RIFLE, CO      CLOUDY    64  22  20 W17       29.84F
MONTROSE, CO   CLOUDY    62  20  19 W15G21    29.89S
CORTEZ, CO     CLOUDY    59  22  24 SW12      29.92F
COLORADO CITY    N/A     55  37  50 W9G17     29.94F
PAGE, AZ       PTSUNNY   59  41  51 VRB5      29.88F
GRAND CANYON   CLOUDY    53  30  41 SW20G29   29.96F
KINGMAN, AZ    PTSUNNY   64  23  21 SW10G16   29.94F
FLAGSTAFF, AZ  PTSUNNY   45  32  60 SW13G21   30.00F

$$

REGIONAL REPORTS    NEVADA/IDAHO/WYOMING

CITY           SKY/WX    TMP DP  RH WIND       PRES   REMARKS
LAS VEGAS, NV  MOSUNNY   70  32  24 NW17G23   29.92F
ELY, NY        PTSUNNY   42  33  70 NE9       30.00F
ELKO, NV       CLOUDY    50  22  33 W8        29.99F
POCATELLO, ID  PTSUNNY   50  34  54 W10       29.97F
BURLEY, ID     MOSUNNY   52  28  39 W14G25    29.97F
FORT BRIDGER,  LGT RAIN  40  40  99 W8        29.95F
EVANSTON, WY   LGT RAIN  38  34  85 W14       29.93S WCI  30
ROCK SPRINGS,  NOT AVBL
KEMMERER, WY     N/A     36  32  87 W3        29.94S

$$




USA.gov is the U.S. government's official web portal to all federal, state and local government web resources and services.